Погода в Ялонг Бэй

Китай     18°13′31″N   109°33′03″E
темп.,
°C
ветер,
м/с
пор.,
м/с
влажн.,
%
обл.,
%
осадки,
мм/ч
давл.,
гПа
погр.,
м
9 августа, вт
вт923:00+26ссв2389100 0.0 1004119
02:00+25ссв2388100 0.0 1002113
05:00+25с2288100 0.0 100172
08:00+26ссз1282100 0.0 1002123
11:00+29зсз3469100 0.0 1002597
14:00+31зсз566951 1.0 1000969
17:00+29зсз3580100 3.0 998420
20:00+27ссз118696 4.7 99925
10 августа, ср
ср1023:00+26ссз2286100 0.5 100062
02:00+25зсз358763 0.6 999179
05:00+26зсз4887100 0.1 998393
08:00+26з61087100 0.7 1000625
11:00+27з71088100 3.9 1002884
14:00+25зюз71095100 14.1 1001699
17:00+25з61095100 12.7 1001613
20:00+25зюз3592100 14.9 1003384
11 августа, чт
чт1123:00+26юз2486100 0.1 1005328
02:00+25ююз2390100 2.5 1004208
05:00+25з1289100 3.6 1004208
08:00+25с1190100 4.2 100582
11:00+28св1176100 0.0 1006358
14:00+28з357450 0.3 1004705
17:00+28зюз2278100 0.0 1004198
20:00+27св2283100 0.0 1005117
12 августа, пт
пт1223:00+26всв3585100 0.1 1007252
02:00+25всв3491100 1.4 1005144
05:00+25всв2290100 2.3 100578
08:00+25всв019198 6.4 100659
11:00+25всв1193100 2.8 100779
14:00+24ссв0094100 9.9 100642
17:00+25ссв1193100 2.3 1005116
20:00+24всв2295100 3.1 1006110
13 августа, сб
сб1323:00+24всв229497 0.1 1008153
02:00+24св2293100 1.4 1006127
05:00+24св2294100 1.9 100588
08:00+24юв1297100 15.9 1006153
11:00+25юв1295100 10.3 1007235
14:00+25ю2393100 14.4 1006258
17:00+24ю1295100 7.4 1006151
20:00+24ююв2296100 14.9 1008174